Wetterdaten: Freitag, 07.05.2010
Datum Zeit Temp. I. Temp. A. Boden 5 cm Feuchte A. Sonne Luftdruck Regen Wind
07.05.2010 00:00 23,0 C 8,8 C 10,2 C 85 % 0 % 998 hPa 0,0 l/m 0,5 km/h (0 Bft)
07.05.2010 00:03 23,0 C 8,8 C 10,2 C 85 % 0 % 998 hPa 0,0 l/m 1,0 km/h (0 Bft)
07.05.2010 00:06 23,0 C 8,7 C 10,2 C 85 % 0 % 998 hPa 0,0 l/m 2,8 km/h (1 Bft)
07.05.2010 00:09 23,0 C 8,7 C 10,1 C 85 % 0 % 998 hPa 0,0 l/m 0,6 km/h (0 Bft)
07.05.2010 00:12 23,0 C 8,6 C 9,9 C 85 % 0 % 998 hPa 0,0 l/m 4,5 km/h (1 Bft)
07.05.2010 00:15 23,0 C 8,6 C 10,0 C 85 % 0 % 998 hPa 0,0 l/m 0,0 km/h (0 Bft)
07.05.2010 00:18 23,0 C 8,5 C 10,0 C 86 % 0 % 998 hPa 0,0 l/m 0,9 km/h (0 Bft)
07.05.2010 00:21 23,0 C 8,5 C 10,1 C 86 % 0 % 998 hPa 0,0 l/m 1,0 km/h (0 Bft)
07.05.2010 00:24 22,9 C 8,4 C 10,0 C 86 % 0 % 998 hPa 0,0 l/m 6,2 km/h (2 Bft)
07.05.2010 00:27 22,9 C 8,4 C 10,1 C 86 % 0 % 998 hPa 0,0 l/m 3,9 km/h (1 Bft)
07.05.2010 00:30 23,0 C 8,3 C 10,0 C 86 % 0 % 998 hPa 0,0 l/m 2,1 km/h (1 Bft)
07.05.2010 00:33 22,9 C 8,3 C 9,9 C 86 % 0 % 998 hPa 0,0 l/m 2,1 km/h (1 Bft)
07.05.2010 00:36 22,9 C 8,3 C 9,9 C 86 % 0 % 998 hPa 0,0 l/m 5,0 km/h (1 Bft)
07.05.2010 00:39 22,9 C 8,3 C 10,1 C 86 % 0 % 998 hPa 0,0 l/m 10,6 km/h (2 Bft)
07.05.2010 00:42 22,9 C 8,3 C 10,1 C 86 % 0 % 998 hPa 0,0 l/m 9,3 km/h (2 Bft)
07.05.2010 00:45 22,9 C 8,3 C 10,2 C 85 % 0 % 998 hPa 0,0 l/m 10,8 km/h (2 Bft)
07.05.2010 00:48 22,9 C 8,3 C 10,1 C 85 % 0 % 998 hPa 0,0 l/m 7,9 km/h (2 Bft)
07.05.2010 00:51 22,9 C 8,3 C 10,2 C 85 % 0 % 998 hPa 0,0 l/m 6,4 km/h (2 Bft)
07.05.2010 00:54 22,9 C 8,3 C 10,3 C 85 % 0 % 998 hPa 0,0 l/m 8,9 km/h (2 Bft)
07.05.2010 00:57 22,9 C 8,3 C 10,3 C 85 % 0 % 998 hPa 0,0 l/m 8,9 km/h (2 Bft)
07.05.2010 01:00 22,9 C 8,3 C 10,3 C 85 % 0 % 998 hPa 0,0 l/m 9,8 km/h (2 Bft)
07.05.2010 01:03 22,9 C 8,3 C 10,4 C 85 % 0 % 998 hPa 0,0 l/m 7,2 km/h (2 Bft)
07.05.2010 01:06 22,9 C 8,3 C 10,3 C 85 % 0 % 998 hPa 0,0 l/m 9,2 km/h (2 Bft)
07.05.2010 01:09 22,9 C 8,3 C 10,2 C 85 % 0 % 998 hPa 0,0 l/m 8,4 km/h (2 Bft)
07.05.2010 01:12 22,9 C 8,2 C 10,2 C 85 % 0 % 998 hPa 0,0 l/m 7,9 km/h (2 Bft)
07.05.2010 01:15 22,9 C 8,2 C 10,2 C 85 % 0 % 998 hPa 0,0 l/m 9,6 km/h (2 Bft)
07.05.2010 01:18 22,9 C 8,2 C 10,2 C 85 % 0 % 998 hPa 0,0 l/m 12,9 km/h (3 Bft)
07.05.2010 01:21 22,9 C 8,2 C 10,4 C 85 % 0 % 998 hPa 0,0 l/m 12,1 km/h (2 Bft)
07.05.2010 01:24 22,9 C 8,1 C 10,3 C 84 % 0 % 998 hPa 0,0 l/m 9,0 km/h (2 Bft)
07.05.2010 01:27 22,9 C 8,1 C 10,3 C 84 % 0 % 998 hPa 0,0 l/m 11,3 km/h (2 Bft)
07.05.2010 01:30 22,9 C 8,1 C 10,2 C 83 % 0 % 998 hPa 0,0 l/m 12,3 km/h (3 Bft)
07.05.2010 01:33 22,9 C 8,1 C 10,1 C 84 % 0 % 998 hPa 0,0 l/m 9,5 km/h (2 Bft)
07.05.2010 01:36 22,9 C 8,2 C 10,2 C 83 % 0 % 998 hPa 0,0 l/m 12,7 km/h (3 Bft)
07.05.2010 01:39 22,9 C 8,2 C 10,1 C 83 % 0 % 998 hPa 0,0 l/m 9,8 km/h (2 Bft)
07.05.2010 01:42 22,9 C 8,1 C 10,1 C 83 % 0 % 998 hPa 0,0 l/m 9,3 km/h (2 Bft)
07.05.2010 01:45 22,9 C 8,1 C 10,2 C 82 % 0 % 998 hPa 0,0 l/m 15,9 km/h (3 Bft)
07.05.2010 01:48 22,9 C 8,1 C 10,0 C 82 % 0 % 998 hPa 0,0 l/m 8,3 km/h (2 Bft)
07.05.2010 01:51 22,9 C 8,2 C 10,0 C 83 % 0 % 998 hPa 0,0 l/m 9,0 km/h (2 Bft)
07.05.2010 01:54 22,9 C 8,1 C 10,0 C 82 % 0 % 998 hPa 0,0 l/m 10,2 km/h (2 Bft)
07.05.2010 01:57 22,9 C 8,1 C 10,0 C 82 % 0 % 998 hPa 0,0 l/m 11,4 km/h (2 Bft)
07.05.2010 02:00 22,9 C 8,1 C 10,0 C 82 % 0 % 998 hPa 0,0 l/m 11,0 km/h (2 Bft)
07.05.2010 02:03 22,9 C 8,1 C 10,1 C 82 % 0 % 998 hPa 0,0 l/m 10,6 km/h (2 Bft)
07.05.2010 02:06 22,9 C 8,1 C 10,0 C 82 % 0 % 998 hPa 0,0 l/m 10,7 km/h (2 Bft)
07.05.2010 02:09 22,9 C 8,1 C 10,0 C 81 % 0 % 998 hPa 0,0 l/m 15,4 km/h (3 Bft)
07.05.2010 02:12 22,9 C 8,1 C 9,9 C 82 % 0 % 998 hPa 0,0 l/m 7,9 km/h (2 Bft)
07.05.2010 02:15 22,9 C 8,0 C 10,0 C 81 % 0 % 998 hPa 0,0 l/m 11,1 km/h (2 Bft)
07.05.2010 02:18 22,9 C 8,1 C 10,0 C 81 % 0 % 998 hPa 0,0 l/m 18,0 km/h (3 Bft)
07.05.2010 02:21 22,9 C 8,1 C 9,9 C 81 % 0 % 998 hPa 0,0 l/m 14,5 km/h (3 Bft)
07.05.2010 02:24 22,9 C 8,0 C 10,0 C 81 % 0 % 998 hPa 0,0 l/m 13,9 km/h (3 Bft)
07.05.2010 02:27 22,8 C 8,0 C 10,0 C 81 % 0 % 998 hPa 0,0 l/m 9,4 km/h (2 Bft)
07.05.2010 02:30 22,9 C 8,0 C 9,9 C 82 % 0 % 998 hPa 0,0 l/m 10,3 km/h (2 Bft)
07.05.2010 02:33 22,9 C 8,0 C 9,8 C 81 % 0 % 998 hPa 0,0 l/m 9,6 km/h (2 Bft)
07.05.2010 02:36 22,9 C 8,0 C 9,9 C 81 % 0 % 998 hPa 0,0 l/m 0,1 km/h (0 Bft)
07.05.2010 02:39 22,8 C 8,0 C 9,8 C 82 % 0 % 998 hPa 0,0 l/m 1,3 km/h (1 Bft)
07.05.2010 02:42 22,8 C 8,0 C 9,9 C 82 % 0 % 998 hPa 0,0 l/m 1,3 km/h (1 Bft)
07.05.2010 02:45 22,8 C 8,0 C 9,9 C 82 % 0 % 998 hPa 0,0 l/m 9,0 km/h (2 Bft)
07.05.2010 02:48 22,9 C 7,9 C 9,9 C 82 % 0 % 998 hPa 0,0 l/m 11,0 km/h (2 Bft)
07.05.2010 02:51 22,9 C 7,9 C 9,8 C 82 % 0 % 998 hPa 0,0 l/m 8,1 km/h (2 Bft)
07.05.2010 02:55 22,8 C 7,9 C 9,8 C 82 % 0 % 998 hPa 0,0 l/m 10,4 km/h (2 Bft)
07.05.2010 02:58 22,8 C 7,9 C 9,9 C 82 % 0 % 998 hPa 0,0 l/m 9,8 km/h (2 Bft)
07.05.2010 03:01 22,8 C 7,9 C 9,9 C 82 % 0 % 998 hPa 0,0 l/m 9,8 km/h (2 Bft)
07.05.2010 03:04 22,8 C 7,9 C 9,9 C 82 % 0 % 998 hPa 0,0 l/m 9,8 km/h (2 Bft)
07.05.2010 03:07 22,8 C 7,9 C 9,9 C 82 % 0 % 998 hPa 0,0 l/m 9,8 km/h (2 Bft)
07.05.2010 03:10 22,8 C 7,9 C 9,9 C 82 % 0 % 998 hPa 0,0 l/m 9,8 km/h (2 Bft)
07.05.2010 03:13 22,8 C 7,9 C 9,9 C 82 % 0 % 998 hPa 0,0 l/m 9,8 km/h (2 Bft)
07.05.2010 03:16 22,8 C 7,9 C 9,9 C 82 % 0 % 998 hPa 0,0 l/m 9,8 km/h (2 Bft)
07.05.2010 03:19 22,8 C 7,9 C 9,9 C 82 % 0 % 998 hPa 0,0 l/m 9,8 km/h (2 Bft)
07.05.2010 03:22 22,8 C 7,9 C 9,9 C 82 % 0 % 998 hPa 0,0 l/m 9,8 km/h (2 Bft)
07.05.2010 03:25 22,8 C 7,9 C 9,9 C 82 % 0 % 998 hPa 0,0 l/m 9,8 km/h (2 Bft)
07.05.2010 03:28 22,9 C 7,9 C 9,9 C 82 % 0 % 999 hPa 0,0 l/m 9,8 km/h (2 Bft)
07.05.2010 03:31 22,9 C 7,9 C 9,9 C 82 % 0 % 999 hPa 0,0 l/m 9,8 km/h (2 Bft)
07.05.2010 03:34 22,9 C 7,9 C 9,9 C 82 % 0 % 999 hPa 0,0 l/m 9,8 km/h (2 Bft)
07.05.2010 03:37 22,9 C 7,9 C 9,9 C 82 % 0 % 999 hPa 0,0 l/m 9,8 km/h (2 Bft)
07.05.2010 03:40 22,9 C 7,9 C 9,9 C 82 % 0 % 999 hPa 0,0 l/m 9,8 km/h (2 Bft)
07.05.2010 03:43 22,8 C 7,9 C 9,9 C 82 % 0 % 999 hPa 0,0 l/m 9,8 km/h (2 Bft)
07.05.2010 03:46 22,8 C 7,9 C 9,9 C 82 % 0 % 999 hPa 0,0 l/m 9,8 km/h (2 Bft)
07.05.2010 03:49 22,8 C 7,9 C 9,9 C 82 % 0 % 999 hPa 0,0 l/m 3,1 km/h (1 Bft)
07.05.2010 03:52 22,8 C 7,7 C 9,8 C 84 % 0 % 999 hPa 0,0 l/m 4,8 km/h (1 Bft)
07.05.2010 03:55 22,8 C 7,7 C 9,7 C 83 % 0 % 999 hPa 0,0 l/m 0,8 km/h (0 Bft)
07.05.2010 03:58 22,8 C 7,7 C 9,7 C 84 % 0 % 999 hPa 0,0 l/m 3,3 km/h (1 Bft)
07.05.2010 04:01 22,8 C 7,6 C 9,7 C 83 % 0 % 999 hPa 0,0 l/m 3,3 km/h (1 Bft)
07.05.2010 04:04 22,8 C 7,6 C 9,8 C 83 % 0 % 999 hPa 0,0 l/m 6,7 km/h (2 Bft)
07.05.2010 04:07 22,8 C 7,6 C 9,8 C 83 % 0 % 999 hPa 0,0 l/m 0,0 km/h (0 Bft)
07.05.2010 04:10 22,9 C 7,6 C 9,6 C 84 % 0 % 999 hPa 0,0 l/m 5,1 km/h (1 Bft)
07.05.2010 04:13 22,9 C 7,6 C 9,8 C 84 % 0 % 999 hPa 0,0 l/m 0,2 km/h (0 Bft)
07.05.2010 04:16 22,9 C 7,6 C 9,8 C 84 % 0 % 999 hPa 0,0 l/m 6,2 km/h (2 Bft)
07.05.2010 04:19 22,8 C 7,6 C 9,8 C 84 % 0 % 999 hPa 0,0 l/m 5,9 km/h (2 Bft)
07.05.2010 04:22 22,8 C 7,6 C 9,8 C 84 % 0 % 999 hPa 0,0 l/m 7,9 km/h (2 Bft)
07.05.2010 04:25 22,8 C 7,6 C 9,8 C 84 % 0 % 999 hPa 0,0 l/m 7,2 km/h (2 Bft)
07.05.2010 04:28 22,9 C 7,6 C 9,7 C 84 % 0 % 999 hPa 0,0 l/m 8,3 km/h (2 Bft)
07.05.2010 04:31 22,8 C 7,4 C 9,7 C 85 % 0 % 999 hPa 0,0 l/m 9,3 km/h (2 Bft)
07.05.2010 04:34 22,8 C 7,4 C 9,7 C 86 % 0 % 999 hPa 0,0 l/m 6,6 km/h (2 Bft)
07.05.2010 04:37 22,8 C 7,4 C 9,4 C 86 % 0 % 999 hPa 0,0 l/m 5,5 km/h (1 Bft)
07.05.2010 04:40 22,8 C 7,4 C 9,6 C 86 % 0 % 999 hPa 0,0 l/m 8,7 km/h (2 Bft)
07.05.2010 04:43 22,8 C 7,4 C 9,6 C 86 % 0 % 999 hPa 0,0 l/m 6,8 km/h (2 Bft)
07.05.2010 04:46 22,8 C 7,4 C 9,6 C 86 % 0 % 999 hPa 0,0 l/m 5,9 km/h (2 Bft)
07.05.2010 04:49 22,8 C 7,2 C 9,6 C 87 % 0 % 999 hPa 0,0 l/m 5,9 km/h (2 Bft)
07.05.2010 04:52 22,8 C 7,2 C 9,5 C 87 % 0 % 999 hPa 0,0 l/m 2,5 km/h (1 Bft)
07.05.2010 04:55 22,8 C 7,2 C 9,4 C 87 % 0 % 999 hPa 0,0 l/m 4,9 km/h (1 Bft)
07.05.2010 04:58 22,8 C 7,2 C 9,4 C 87 % 0 % 999 hPa 0,0 l/m 0,5 km/h (0 Bft)
07.05.2010 05:01 22,8 C 7,2 C 9,5 C 87 % 0 % 999 hPa 0,0 l/m 2,9 km/h (1 Bft)
07.05.2010 05:04 22,8 C 7,1 C 9,5 C 87 % 0 % 999 hPa 0,0 l/m 0,3 km/h (0 Bft)
07.05.2010 05:07 22,8 C 7,1 C 9,2 C 87 % 0 % 999 hPa 0,0 l/m 0,0 km/h (0 Bft)
07.05.2010 05:10 22,8 C 7,1 C 8,5 C 87 % 0 % 999 hPa 0,0 l/m 0,0 km/h (0 Bft)
07.05.2010 05:13 22,8 C 7,2 C 8,7 C 87 % 0 % 999 hPa 0,0 l/m 0,0 km/h (0 Bft)
07.05.2010 05:16 22,8 C 7,2 C 8,7 C 87 % 0 % 999 hPa 0,0 l/m 0,0 km/h (0 Bft)
07.05.2010 05:19 22,8 C 7,2 C 9,0 C 87 % 0 % 999 hPa 0,0 l/m 0,0 km/h (0 Bft)
07.05.2010 05:22 22,8 C 7,2 C 9,2 C 87 % 0 % 999 hPa 0,0 l/m 0,1 km/h (0 Bft)
07.05.2010 05:25 22,8 C 7,2 C 9,2 C 87 % 0 % 999 hPa 0,0 l/m 2,8 km/h (1 Bft)
07.05.2010 05:28 22,8 C 7,2 C 9,3 C 88 % 0 % 999 hPa 0,0 l/m 1,0 km/h (0 Bft)
07.05.2010 05:31 22,8 C 7,1 C 9,1 C 88 % 0 % 999 hPa 0,0 l/m 1,9 km/h (1 Bft)
07.05.2010 05:34 22,8 C 7,1 C 8,8 C 88 % 0 % 999 hPa 0,0 l/m 0,0 km/h (0 Bft)
07.05.2010 05:37 22,8 C 7,2 C 8,4 C 88 % 0 % 999 hPa 0,0 l/m 0,0 km/h (0 Bft)
07.05.2010 05:40 22,8 C 7,1 C 8,4 C 88 % 0 % 999 hPa 0,0 l/m 0,0 km/h (0 Bft)
07.05.2010 05:43 22,8 C 7,1 C 8,4 C 88 % 0 % 999 hPa 0,0 l/m 0,0 km/h (0 Bft)
07.05.2010 05:46 22,8 C 7,0 C 8,7 C 88 % 0 % 999 hPa 0,0 l/m 0,9 km/h (0 Bft)
07.05.2010 05:49 22,9 C 7,0 C 8,7 C 88 % 0 % 999 hPa 0,0 l/m 0,0 km/h (0 Bft)
07.05.2010 05:52 22,8 C 7,0 C 8,7 C 88 % 0 % 999 hPa 0,0 l/m 0,3 km/h (0 Bft)
07.05.2010 05:55 22,8 C 7,0 C 8,7 C 88 % 0 % 999 hPa 0,0 l/m 0,0 km/h (0 Bft)
07.05.2010 05:58 22,9 C 6,9 C 8,6 C 89 % 0 % 999 hPa 0,0 l/m 0,0 km/h (0 Bft)
07.05.2010 06:01 22,8 C 6,9 C 8,7 C 89 % 0 % 999 hPa 0,0 l/m 0,0 km/h (0 Bft)
07.05.2010 06:04 22,8 C 7,0 C 8,8 C 89 % 0 % 999 hPa 0,0 l/m 0,0 km/h (0 Bft)
07.05.2010 06:07 22,8 C 7,0 C 9,1 C 89 % 0 % 999 hPa 0,0 l/m 0,0 km/h (0 Bft)
07.05.2010 06:10 22,8 C 7,0 C 9,3 C 90 % 0 % 999 hPa 0,0 l/m 2,8 km/h (1 Bft)
07.05.2010 06:13 22,8 C 7,0 C 9,4 C 90 % 0 % 999 hPa 0,0 l/m 1,2 km/h (1 Bft)
07.05.2010 06:16 22,8 C 7,0 C 9,5 C 90 % 0 % 999 hPa 0,0 l/m 0,4 km/h (0 Bft)
07.05.2010 06:19 22,2 C 7,0 C 9,4 C 90 % 0 % 999 hPa 0,0 l/m 0,0 km/h (0 Bft)
07.05.2010 06:22 21,4 C 7,0 C 9,6 C 90 % 0 % 999 hPa 0,0 l/m 0,0 km/h (0 Bft)
07.05.2010 06:25 21,4 C 7,1 C 9,5 C 90 % 0 % 999 hPa 0,0 l/m 0,0 km/h (0 Bft)
07.05.2010 06:28 21,1 C 7,1 C 9,1 C 90 % 0 % 1000 hPa 0,0 l/m 0,0 km/h (0 Bft)
07.05.2010 06:31 21,4 C 7,1 C 8,3 C 90 % 0 % 1000 hPa 0,0 l/m 0,0 km/h (0 Bft)
07.05.2010 06:34 21,4 C 7,2 C 8,3 C 90 % 0 % 1000 hPa 0,0 l/m 0,0 km/h (0 Bft)
07.05.2010 06:37 21,9 C 7,2 C 8,0 C 90 % 0 % 1000 hPa 0,0 l/m 0,0 km/h (0 Bft)
07.05.2010 06:40 22,2 C 7,3 C 7,9 C 90 % 0 % 1000 hPa 0,0 l/m 0,0 km/h (0 Bft)
07.05.2010 06:43 22,6 C 7,3 C 8,0 C 90 % 0 % 1000 hPa 0,0 l/m 0,0 km/h (0 Bft)
07.05.2010 06:46 22,8 C 7,3 C 7,8 C 90 % 0 % 1000 hPa 0,0 l/m 0,3 km/h (0 Bft)
07.05.2010 06:49 22,8 C 7,4 C 8,0 C 90 % 0 % 1000 hPa 0,0 l/m 0,1 km/h (0 Bft)
07.05.2010 06:52 22,8 C 7,4 C 8,0 C 90 % 0 % 1000 hPa 0,0 l/m 0,1 km/h (0 Bft)
07.05.2010 06:55 22,9 C 7,5 C 8,0 C 90 % 0 % 1000 hPa 0,0 l/m 0,0 km/h (0 Bft)
07.05.2010 06:58 22,9 C 7,5 C 8,0 C 90 % 0 % 1000 hPa 0,0 l/m 0,2 km/h (0 Bft)
07.05.2010 07:01 23,0 C 7,5 C 8,3 C 90 % 0 % 1000 hPa 0,0 l/m 0,1 km/h (0 Bft)
07.05.2010 07:04 23,0 C 7,6 C 8,5 C 91 % 0 % 1000 hPa 0,0 l/m 0,0 km/h (0 Bft)
07.05.2010 07:07 23,0 C 7,7 C 8,5 C 90 % 0 % 1000 hPa 0,0 l/m 0,0 km/h (0 Bft)
07.05.2010 07:10 22,9 C 7,7 C 9,2 C 90 % 0 % 1000 hPa 0,0 l/m 0,0 km/h (0 Bft)
07.05.2010 07:13 22,9 C 7,7 C 9,0 C 90 % 0 % 1000 hPa 0,0 l/m 0,0 km/h (0 Bft)
07.05.2010 07:16 22,9 C 7,7 C 8,7 C 90 % 0 % 1000 hPa 0,0 l/m 0,1 km/h (0 Bft)
07.05.2010 07:19 22,9 C 7,8 C 9,2 C 90 % 0 % 1000 hPa 0,0 l/m 0,0 km/h (0 Bft)
07.05.2010 07:22 22,9 C 7,8 C 9,9 C 90 % 0 % 1000 hPa 0,0 l/m 1,1 km/h (1 Bft)
07.05.2010 07:25 22,9 C 8,0 C 10,3 C 90 % 0 % 1000 hPa 0,0 l/m 1,4 km/h (1 Bft)
07.05.2010 07:28 22,9 C 8,1 C 10,6 C 89 % 0 % 1000 hPa 0,0 l/m 5,9 km/h (2 Bft)
07.05.2010 07:31 22,9 C 8,2 C 10,7 C 88 % 0 % 1000 hPa 0,0 l/m 7,3 km/h (2 Bft)
07.05.2010 07:34 22,9 C 8,2 C 10,7 C 88 % 0 % 1000 hPa 0,0 l/m 9,8 km/h (2 Bft)
07.05.2010 07:37 22,9 C 8,3 C 10,6 C 85 % 0 % 1000 hPa 0,0 l/m 5,7 km/h (1 Bft)
07.05.2010 07:40 22,9 C 8,3 C 10,5 C 85 % 0 % 1000 hPa 0,0 l/m 4,6 km/h (1 Bft)
07.05.2010 07:43 22,9 C 8,3 C 10,4 C 85 % 0 % 1000 hPa 0,0 l/m 1,6 km/h (1 Bft)
07.05.2010 07:46 22,9 C 8,3 C 10,4 C 85 % 0 % 1000 hPa 0,0 l/m 1,8 km/h (1 Bft)
07.05.2010 07:49 22,9 C 8,1 C 10,4 C 84 % 0 % 1000 hPa 0,0 l/m 6,7 km/h (2 Bft)
07.05.2010 07:52 22,8 C 8,1 C 10,4 C 82 % 0 % 1000 hPa 0,0 l/m 10,5 km/h (2 Bft)
07.05.2010 07:55 22,9 C 8,1 C 10,4 C 82 % 0 % 1000 hPa 0,0 l/m 8,9 km/h (2 Bft)
07.05.2010 07:58 22,8 C 8,1 C 10,5 C 82 % 0 % 1000 hPa 0,0 l/m 6,7 km/h (2 Bft)
07.05.2010 08:01 22,9 C 8,0 C 10,5 C 82 % 0 % 1000 hPa 0,0 l/m 8,2 km/h (2 Bft)
07.05.2010 08:04 22,9 C 8,0 C 10,5 C 81 % 0 % 1000 hPa 0,0 l/m 5,6 km/h (1 Bft)
07.05.2010 08:07 22,8 C 8,0 C 10,6 C 81 % 0 % 1000 hPa 0,0 l/m 3,1 km/h (1 Bft)
07.05.2010 08:10 22,8 C 8,0 C 10,7 C 81 % 0 % 1000 hPa 0,0 l/m 3,6 km/h (1 Bft)
07.05.2010 08:13 22,8 C 8,1 C 10,7 C 83 % 0 % 1000 hPa 0,0 l/m 1,0 km/h (0 Bft)
07.05.2010 08:16 22,9 C 8,2 C 10,7 C 82 % 0 % 1000 hPa 0,0 l/m 3,8 km/h (1 Bft)
07.05.2010 08:19 22,8 C 8,1 C 10,8 C 82 % 0 % 1000 hPa 0,0 l/m 4,7 km/h (1 Bft)
07.05.2010 08:22 22,9 C 8,2 C 10,9 C 82 % 0 % 1001 hPa 0,0 l/m 4,6 km/h (1 Bft)
07.05.2010 08:25 22,9 C 8,2 C 11,1 C 82 % 0 % 1001 hPa 0,0 l/m 5,4 km/h (1 Bft)
07.05.2010 08:28 22,9 C 8,2 C 11,3 C 82 % 0 % 1001 hPa 0,0 l/m 6,0 km/h (2 Bft)
07.05.2010 08:31 22,9 C 8,4 C 11,4 C 82 % 0 % 1001 hPa 0,0 l/m 4,4 km/h (1 Bft)
07.05.2010 08:34 22,9 C 8,4 C 11,5 C 81 % 0 % 1001 hPa 0,0 l/m 3,3 km/h (1 Bft)
07.05.2010 08:37 22,8 C 8,4 C 11,5 C 81 % 0 % 1000 hPa 0,0 l/m 5,8 km/h (2 Bft)
07.05.2010 08:40 22,9 C 8,5 C 11,7 C 82 % 0 % 1000 hPa 0,0 l/m 5,8 km/h (2 Bft)
07.05.2010 08:43 22,9 C 8,6 C 11,8 C 80 % 0 % 1001 hPa 0,0 l/m 6,5 km/h (2 Bft)
07.05.2010 08:46 22,9 C 8,7 C 12,1 C 81 % 0 % 1001 hPa 0,0 l/m 5,4 km/h (1 Bft)
07.05.2010 08:49 22,9 C 8,7 C 12,2 C 80 % 0 % 1001 hPa 0,0 l/m 3,4 km/h (1 Bft)
07.05.2010 08:52 22,9 C 8,7 C 12,2 C 80 % 0 % 1001 hPa 0,0 l/m 2,2 km/h (1 Bft)
07.05.2010 08:55 22,9 C 8,7 C 12,3 C 78 % 0 % 1001 hPa 0,0 l/m 6,3 km/h (2 Bft)
07.05.2010 08:58 22,8 C 8,7 C 12,5 C 78 % 0 % 1001 hPa 0,0 l/m 10,0 km/h (2 Bft)
07.05.2010 09:01 22,9 C 8,8 C 12,7 C 81 % 0 % 1001 hPa 0,0 l/m 9,8 km/h (2 Bft)
07.05.2010 09:04 22,9 C 8,8 C 12,7 C 81 % 0 % 1001 hPa 0,0 l/m 0,5 km/h (0 Bft)
07.05.2010 09:07 22,9 C 9,0 C 13,1 C 78 % 0 % 1001 hPa 0,0 l/m 9,2 km/h (2 Bft)
07.05.2010 09:10 22,9 C 9,0 C 13,2 C 78 % 0 % 1001 hPa 0,0 l/m 3,9 km/h (1 Bft)
07.05.2010 09:13 22,9 C 9,0 C 13,0 C 76 % 0 % 1001 hPa 0,0 l/m 12,0 km/h (2 Bft)
07.05.2010 09:16 22,9 C 9,1 C 13,1 C 80 % 0 % 1001 hPa 0,0 l/m 13,9 km/h (3 Bft)
07.05.2010 09:19 22,9 C 9,2 C 13,0 C 79 % 0 % 1001 hPa 0,0 l/m 10,4 km/h (2 Bft)
07.05.2010 09:22 22,9 C 9,2 C 13,1 C 78 % 0 % 1001 hPa 0,0 l/m 6,7 km/h (2 Bft)
07.05.2010 09:25 22,9 C 9,2 C 13,0 C 76 % 0 % 1001 hPa 0,0 l/m 12,1 km/h (2 Bft)
07.05.2010 09:28 22,9 C 9,1 C 12,8 C 76 % 0 % 1001 hPa 0,0 l/m 7,8 km/h (2 Bft)
07.05.2010 09:31 22,9 C 9,2 C 12,8 C 78 % 0 % 1001 hPa 0,0 l/m 6,7 km/h (2 Bft)
07.05.2010 09:34 22,9 C 9,2 C 12,7 C 78 % 0 % 1001 hPa 0,0 l/m 9,4 km/h (2 Bft)
07.05.2010 09:37 22,9 C 9,2 C 12,6 C 77 % 0 % 1001 hPa 0,0 l/m 9,6 km/h (2 Bft)
07.05.2010 09:40 22,9 C 9,1 C 12,2 C 79 % 0 % 1001 hPa 0,0 l/m 10,8 km/h (2 Bft)
07.05.2010 09:43 22,8 C 9,1 C 12,2 C 78 % 0 % 1001 hPa 0,0 l/m 11,6 km/h (2 Bft)
07.05.2010 09:46 22,9 C 9,1 C 11,7 C 78 % 0 % 1001 hPa 0,0 l/m 10,5 km/h (2 Bft)
07.05.2010 09:49 22,9 C 9,0 C 11,7 C 76 % 0 % 1001 hPa 0,0 l/m 13,9 km/h (3 Bft)
07.05.2010 09:52 22,9 C 9,0 C 11,8 C 77 % 0 % 1001 hPa 0,0 l/m 11,8 km/h (2 Bft)
07.05.2010 09:55 22,9 C 9,0 C 12,1 C 77 % 0 % 1001 hPa 0,0 l/m 12,7 km/h (3 Bft)
07.05.2010 09:58 22,9 C 9,1 C 12,3 C 77 % 0 % 1001 hPa 0,0 l/m 8,1 km/h (2 Bft)
07.05.2010 10:01 22,9 C 9,2 C 12,4 C 76 % 0 % 1001 hPa 0,0 l/m 8,3 km/h (2 Bft)
07.05.2010 10:04 22,8 C 9,2 C 12,7 C 76 % 0 % 1001 hPa 0,0 l/m 8,3 km/h (2 Bft)
07.05.2010 10:07 22,9 C 9,2 C 12,9 C 76 % 0 % 1001 hPa 0,0 l/m 10,8 km/h (2 Bft)
07.05.2010 10:10 22,9 C 9,3 C 12,6 C 76 % 0 % 1001 hPa 0,0 l/m 10,1 km/h (2 Bft)
07.05.2010 10:13 22,9 C 9,3 C 12,4 C 74 % 0 % 1001 hPa 0,0 l/m 5,1 km/h (1 Bft)
07.05.2010 10:16 22,9 C 9,3 C 12,3 C 76 % 0 % 1001 hPa 0,0 l/m 10,0 km/h (2 Bft)
07.05.2010 10:19 22,9 C 9,2 C 12,4 C 77 % 0 % 1001 hPa 0,0 l/m 7,7 km/h (2 Bft)
07.05.2010 10:22 22,9 C 9,3 C 12,4 C 78 % 0 % 1001 hPa 0,0 l/m 7,2 km/h (2 Bft)
07.05.2010 10:25 22,9 C 9,3 C 12,3 C 76 % 0 % 1001 hPa 0,0 l/m 10,6 km/h (2 Bft)
07.05.2010 10:28 22,9 C 9,3 C 12,4 C 76 % 0 % 1001 hPa 0,0 l/m 11,1 km/h (2 Bft)
07.05.2010 10:31 22,9 C 9,3 C 12,5 C 76 % 0 % 1001 hPa 0,0 l/m 7,1 km/h (2 Bft)
07.05.2010 10:34 22,9 C 9,2 C 12,4 C 78 % 0 % 1001 hPa 0,0 l/m 5,2 km/h (1 Bft)
07.05.2010 10:37 22,9 C 9,2 C 12,0 C 76 % 0 % 1001 hPa 0,0 l/m 8,3 km/h (2 Bft)
07.05.2010 10:40 22,9 C 9,1 C 11,9 C 74 % 0 % 1001 hPa 0,0 l/m 7,4 km/h (2 Bft)
07.05.2010 10:43 22,9 C 9,1 C 11,8 C 76 % 0 % 1001 hPa 0,0 l/m 12,7 km/h (3 Bft)
07.05.2010 10:46 22,9 C 9,0 C 11,6 C 76 % 0 % 1001 hPa 0,0 l/m 10,1 km/h (2 Bft)
07.05.2010 10:49 22,9 C 9,0 C 11,6 C 76 % 0 % 1001 hPa 0,0 l/m 12,1 km/h (2 Bft)
07.05.2010 10:52 22,9 C 9,0 C 11,6 C 76 % 0 % 1001 hPa 0,0 l/m 10,1 km/h (2 Bft)
07.05.2010 10:55 22,9 C 9,0 C 11,9 C 76 % 0 % 1001 hPa 0,0 l/m 12,7 km/h (3 Bft)
07.05.2010 10:58 22,9 C 8,9 C 12,0 C 76 % 0 % 1001 hPa 0,0 l/m 16,4 km/h (3 Bft)
07.05.2010 11:01 22,9 C 8,9 C 12,2 C 76 % 0 % 1002 hPa 0,0 l/m 11,2 km/h (2 Bft)
07.05.2010 11:04 22,9 C 8,9 C 12,2 C 74 % 0 % 1002 hPa 0,0 l/m 12,0 km/h (2 Bft)
07.05.2010 11:07 22,9 C 8,9 C 12,2 C 75 % 0 % 1002 hPa 0,0 l/m 10,2 km/h (2 Bft)
07.05.2010 11:10 22,9 C 8,9 C 12,3 C 75 % 0 % 1002 hPa 0,0 l/m 8,3 km/h (2 Bft)
07.05.2010 11:13 22,9 C 9,1 C 12,4 C 79 % 0 % 1002 hPa 0,0 l/m 10,0 km/h (2 Bft)
07.05.2010 11:16 22,9 C 9,2 C 12,5 C 79 % 0 % 1002 hPa 0,0 l/m 6,4 km/h (2 Bft)
07.05.2010 11:19 22,9 C 9,2 C 12,4 C 81 % 0 % 1002 hPa 0,0 l/m 10,1 km/h (2 Bft)
07.05.2010 11:22 22,9 C 9,2 C 12,3 C 81 % 0 % 1002 hPa 0,0 l/m 10,2 km/h (2 Bft)
07.05.2010 11:25 22,9 C 9,0 C 12,2 C 77 % 0 % 1002 hPa 0,0 l/m 8,7 km/h (2 Bft)
07.05.2010 11:28 22,9 C 9,1 C 12,2 C 79 % 0 % 1002 hPa 0,0 l/m 8,2 km/h (2 Bft)
07.05.2010 11:31 22,9 C 9,1 C 12,4 C 77 % 0 % 1002 hPa 0,0 l/m 13,2 km/h (3 Bft)
07.05.2010 11:34 22,8 C 9,1 C 12,5 C 77 % 0 % 1002 hPa 0,0 l/m 12,6 km/h (3 Bft)
07.05.2010 11:37 22,9 C 9,1 C 12,6 C 76 % 0 % 1002 hPa 0,0 l/m 10,0 km/h (2 Bft)
07.05.2010 11:40 22,8 C 9,1 C 12,6 C 74 % 0 % 1002 hPa 0,0 l/m 9,8 km/h (2 Bft)
07.05.2010 11:43 22,9 C 9,1 C 12,5 C 77 % 0 % 1002 hPa 0,0 l/m 7,6 km/h (2 Bft)
07.05.2010 11:46 22,9 C 9,1 C 12,2 C 77 % 0 % 1002 hPa 0,0 l/m 7,2 km/h (2 Bft)
07.05.2010 11:49 22,9 C 9,2 C 12,2 C 77 % 0 % 1002 hPa 0,0 l/m 7,0 km/h (2 Bft)
07.05.2010 11:52 22,9 C 9,2 C 12,5 C 77 % 0 % 1002 hPa 0,0 l/m 9,0 km/h (2 Bft)
07.05.2010 11:55 22,9 C 9,2 C 12,8 C 77 % 0 % 1002 hPa 0,0 l/m 11,8 km/h (2 Bft)
07.05.2010 11:58 22,8 C 9,3 C 12,9 C 76 % 0 % 1002 hPa 0,0 l/m 6,2 km/h (2 Bft)
07.05.2010 12:01 22,8 C 9,4 C 13,1 C 76 % 0 % 1002 hPa 0,0 l/m 6,2 km/h (2 Bft)
07.05.2010 12:04 22,9 C 9,5 C 13,2 C 76 % 0 % 1002 hPa 0,0 l/m 9,8 km/h (2 Bft)
07.05.2010 12:07 22,9 C 9,5 C 13,6 C 76 % 0 % 1002 hPa 0,0 l/m 15,1 km/h (3 Bft)
07.05.2010 12:10 22,9 C 9,7 C 13,8 C 77 % 0 % 1002 hPa 0,0 l/m 6,1 km/h (2 Bft)
07.05.2010 12:13 22,9 C 9,9 C 14,2 C 76 % 0 % 1002 hPa 0,0 l/m 10,1 km/h (2 Bft)
07.05.2010 12:16 22,9 C 9,9 C 14,4 C 76 % 0 % 1002 hPa 0,0 l/m 13,0 km/h (3 Bft)
07.05.2010 12:19 22,9 C 10,0 C 14,4 C 73 % 0 % 1002 hPa 0,0 l/m 15,5 km/h (3 Bft)
07.05.2010 12:22 22,9 C 10,0 C 14,7 C 73 % 0 % 1002 hPa 0,0 l/m 12,8 km/h (3 Bft)
07.05.2010 12:25 23,0 C 10,0 C 14,7 C 73 % 0 % 1002 hPa 0,0 l/m 9,5 km/h (2 Bft)
07.05.2010 12:28 22,9 C 10,3 C 14,8 C 77 % 0 % 1002 hPa 0,0 l/m 11,2 km/h (2 Bft)
07.05.2010 12:31 22,9 C 10,5 C 15,1 C 77 % 0 % 1002 hPa 0,0 l/m 12,6 km/h (3 Bft)
07.05.2010 12:34 23,0 C 10,5 C 15,4 C 77 % 0 % 1002 hPa 0,0 l/m 12,6 km/h (3 Bft)
07.05.2010 12:37 22,9 C 10,9 C 15,6 C 76 % 0 % 1002 hPa 0,0 l/m 6,9 km/h (2 Bft)
07.05.2010 12:40 23,0 C 11,2 C 15,2 C 73 % 0 % 1002 hPa 0,0 l/m 10,4 km/h (2 Bft)
07.05.2010 12:43 23,0 C 11,3 C 16,0 C 72 % 0 % 1002 hPa 0,0 l/m 7,8 km/h (2 Bft)
07.05.2010 12:46 23,0 C 11,5 C 15,3 C 73 % 0 % 1002 hPa 0,0 l/m 5,8 km/h (2 Bft)
07.05.2010 12:49 22,9 C 11,5 C 14,8 C 69 % 0 % 1002 hPa 0,0 l/m 5,7 km/h (1 Bft)
07.05.2010 12:52 22,9 C 11,4 C 14,8 C 73 % 0 % 1002 hPa 0,0 l/m 10,2 km/h (2 Bft)
07.05.2010 12:55 22,9 C 11,5 C 14,5 C 73 % 0 % 1002 hPa 0,0 l/m 6,4 km/h (2 Bft)
07.05.2010 12:58 22,9 C 11,5 C 14,6 C 73 % 0 % 1002 hPa 0,0 l/m 6,8 km/h (2 Bft)
07.05.2010 13:01 22,9 C 11,5 C 14,7 C 73 % 0 % 1002 hPa 0,0 l/m 8,3 km/h (2 Bft)
07.05.2010 13:04 22,9 C 11,7 C 15,2 C 70 % 0 % 1002 hPa 0,0 l/m 10,5 km/h (2 Bft)
07.05.2010 13:07 22,9 C 11,8 C 15,3 C 72 % 0 % 1002 hPa 0,0 l/m 8,5 km/h (2 Bft)
07.05.2010 13:10 22,9 C 11,8 C 15,4 C 69 % 0 % 1002 hPa 0,0 l/m 0,7 km/h (0 Bft)
07.05.2010 13:13 22,9 C 11,8 C 15,8 C 68 % 0 % 1002 hPa 0,0 l/m 1,7 km/h (1 Bft)
07.05.2010 13:16 22,9 C 11,8 C 16,3 C 68 % 0 % 1002 hPa 0,0 l/m 8,4 km/h (2 Bft)
07.05.2010 13:19 22,9 C 12,2 C 16,3 C 70 % 0 % 1002 hPa 0,0 l/m 12,2 km/h (2 Bft)
07.05.2010 13:22 22,9 C 12,3 C 16,5 C 67 % 0 % 1002 hPa 0,0 l/m 7,6 km/h (2 Bft)
07.05.2010 13:25 22,9 C 12,3 C 16,6 C 67 % 0 % 1002 hPa 0,0 l/m 2,5 km/h (1 Bft)
07.05.2010 13:28 23,0 C 12,4 C 16,8 C 68 % 0 % 1002 hPa 0,0 l/m 7,0 km/h (2 Bft)
07.05.2010 13:31 23,0 C 12,4 C 16,2 C 71 % 0 % 1002 hPa 0,0 l/m 7,0 km/h (2 Bft)
07.05.2010 13:34 23,1 C 12,4 C 16,2 C 71 % 0 % 1002 hPa 0,0 l/m 10,1 km/h (2 Bft)
07.05.2010 13:37 23,2 C 12,9 C 16,3 C 70 % 0 % 1002 hPa 0,0 l/m 8,0 km/h (2 Bft)
07.05.2010 13:40 23,2 C 12,9 C 16,0 C 69 % 0 % 1002 hPa 0,0 l/m 10,1 km/h (2 Bft)
07.05.2010 13:43 23,2 C 12,8 C 14,7 C 67 % 0 % 1002 hPa 0,0 l/m 7,5 km/h (2 Bft)
07.05.2010 13:46 23,2 C 12,8 C 14,7 C 67 % 0 % 1002 hPa 0,0 l/m 9,8 km/h (2 Bft)
07.05.2010 13:49 23,2 C 12,8 C 14,1 C 67 % 0 % 1002 hPa 0,0 l/m 9,4 km/h (2 Bft)
07.05.2010 13:52 23,2 C 11,7 C 14,1 C 69 % 0 % 1002 hPa 0,0 l/m 7,1 km/h (2 Bft)
07.05.2010 13:55 23,2 C 11,4 C 13,8 C 70 % 0 % 1002 hPa 0,0 l/m 9,4 km/h (2 Bft)
07.05.2010 13:58 23,3 C 11,3 C 13,7 C 71 % 0 % 1002 hPa 0,0 l/m 8,5 km/h (2 Bft)
07.05.2010 14:01 23,4 C 11,2 C 13,5 C 70 % 0 % 1002 hPa 0,0 l/m 7,6 km/h (2 Bft)
07.05.2010 14:04 23,4 C 11,2 C 13,0 C 70 % 0 % 1002 hPa 0,0 l/m 7,6 km/h (2 Bft)
07.05.2010 14:07 23,4 C 10,8 C 12,8 C 72 % 0 % 1002 hPa 0,0 l/m 5,1 km/h (1 Bft)
07.05.2010 14:10 23,4 C 10,8 C 12,8 C 72 % 0 % 1002 hPa 0,0 l/m 4,2 km/h (1 Bft)
07.05.2010 14:13 23,2 C 10,7 C 13,0 C 72 % 0 % 1002 hPa 0,0 l/m 5,3 km/h (1 Bft)
07.05.2010 14:16 23,2 C 10,6 C 13,0 C 75 % 0 % 1002 hPa 0,0 l/m 0,9 km/h (0 Bft)
07.05.2010 14:19 22,0 C 10,6 C 13,1 C 72 % 0 % 1002 hPa 0,0 l/m 3,1 km/h (1 Bft)
07.05.2010 14:22 21,5 C 10,5 C 13,2 C 73 % 0 % 1002 hPa 0,0 l/m 5,3 km/h (1 Bft)
07.05.2010 14:25 21,0 C 10,5 C 13,2 C 76 % 0 % 1002 hPa 0,0 l/m 0,6 km/h (0 Bft)
07.05.2010 14:28 20,7 C 10,5 C 13,3 C 76 % 0 % 1002 hPa 0,0 l/m 14,5 km/h (3 Bft)
07.05.2010 14:31 20,5 C 10,5 C 13,2 C 76 % 0 % 1002 hPa 0,0 l/m 3,2 km/h (1 Bft)
07.05.2010 14:34 20,4 C 10,4 C 13,3 C 73 % 0 % 1002 hPa 0,0 l/m 11,0 km/h (2 Bft)
07.05.2010 14:37 21,2 C 10,4 C 13,3 C 73 % 0 % 1002 hPa 0,0 l/m 12,3 km/h (3 Bft)
07.05.2010 14:40 21,5 C 10,4 C 13,5 C 75 % 0 % 1002 hPa 0,0 l/m 12,6 km/h (3 Bft)
07.05.2010 14:43 21,8 C 10,4 C 13,5 C 75 % 0 % 1002 hPa 0,0 l/m 12,5 km/h (3 Bft)
07.05.2010 14:46 22,0 C 10,4 C 13,5 C 75 % 0 % 1002 hPa 0,0 l/m 9,5 km/h (2 Bft)
07.05.2010 14:49 22,3 C 10,4 C 13,5 C 75 % 0 % 1002 hPa 0,0 l/m 6,7 km/h (2 Bft)
07.05.2010 14:52 22,4 C 10,2 C 13,5 C 74 % 0 % 1002 hPa 0,0 l/m 8,1 km/h (2 Bft)
07.05.2010 14:55 22,6 C 10,2 C 13,6 C 74 % 0 % 1002 hPa 0,0 l/m 10,0 km/h (2 Bft)
07.05.2010 14:58 22,6 C 10,3 C 13,7 C 71 % 0 % 1002 hPa 0,0 l/m 9,6 km/h (2 Bft)
07.05.2010 15:01 22,7 C 10,3 C 13,9 C 71 % 0 % 1002 hPa 0,0 l/m 10,4 km/h (2 Bft)
07.05.2010 15:04 22,8 C 10,3 C 14,1 C 70 % 0 % 1002 hPa 0,0 l/m 13,3 km/h (3 Bft)
07.05.2010 15:07 22,8 C 10,3 C 14,6 C 70 % 0 % 1002 hPa 0,0 l/m 10,5 km/h (2 Bft)
07.05.2010 15:10 22,8 C 10,5 C 15,6 C 71 % 0 % 1002 hPa 0,0 l/m 12,0 km/h (2 Bft)
07.05.2010 15:13 22,8 C 10,6 C 16,2 C 71 % 0 % 1002 hPa 0,0 l/m 6,5 km/h (2 Bft)
07.05.2010 15:16 22,8 C 10,8 C 16,2 C 71 % 0 % 1002 hPa 0,0 l/m 8,6 km/h (2 Bft)
07.05.2010 15:19 22,8 C 10,8 C 16,6 C 71 % 0 % 1002 hPa 0,0 l/m 10,8 km/h (2 Bft)
07.05.2010 15:22 22,9 C 10,9 C 16,4 C 68 % 0 % 1002 hPa 0,0 l/m 9,4 km/h (2 Bft)
07.05.2010 15:25 22,8 C 10,9 C 15,4 C 68 % 0 % 1002 hPa 0,0 l/m 3,1 km/h (1 Bft)
07.05.2010 15:28 22,9 C 10,9 C 15,3 C 68 % 0 % 1002 hPa 0,0 l/m 8,9 km/h (2 Bft)
07.05.2010 15:31 22,9 C 10,9 C 15,3 C 67 % 0 % 1002 hPa 0,0 l/m 9,1 km/h (2 Bft)
07.05.2010 15:34 22,9 C 10,8 C 15,1 C 67 % 0 % 1002 hPa 0,0 l/m 12,2 km/h (2 Bft)
07.05.2010 15:37 22,9 C 10,8 C 15,1 C 67 % 0 % 1002 hPa 0,0 l/m 10,0 km/h (2 Bft)
07.05.2010 15:40 22,9 C 10,8 C 15,4 C 69 % 0 % 1002 hPa 0,0 l/m 8,2 km/h (2 Bft)
07.05.2010 15:43 22,9 C 10,8 C 15,5 C 71 % 0 % 1002 hPa 0,0 l/m 10,4 km/h (2 Bft)
07.05.2010 15:46 22,9 C 11,0 C 15,0 C 69 % 0 % 1002 hPa 0,0 l/m 6,0 km/h (2 Bft)
07.05.2010 15:49 22,9 C 11,1 C 15,2 C 70 % 0 % 1002 hPa 0,0 l/m 1,2 km/h (1 Bft)
07.05.2010 15:52 22,9 C 11,1 C 15,0 C 69 % 0 % 1002 hPa 0,0 l/m 1,2 km/h (1 Bft)
07.05.2010 15:55 22,9 C 11,1 C 15,4 C 69 % 0 % 1002 hPa 0,0 l/m 1,2 km/h (1 Bft)
07.05.2010 15:58 22,9 C 11,4 C 15,6 C 69 % 0 % 1002 hPa 0,0 l/m 4,2 km/h (1 Bft)
07.05.2010 16:01 22,9 C 11,5 C 14,9 C 70 % 0 % 1002 hPa 0,0 l/m 3,3 km/h (1 Bft)
07.05.2010 16:04 22,9 C 11,7 C 14,6 C 72 % 0 % 1002 hPa 0,0 l/m 2,3 km/h (1 Bft)
07.05.2010 16:07 22,8 C 12,0 C 15,2 C 69 % 0 % 1002 hPa 0,0 l/m 0,1 km/h (0 Bft)
07.05.2010 16:10 22,6 C 12,1 C 15,2 C 70 % 0 % 1002 hPa 0,0 l/m 4,3 km/h (1 Bft)
07.05.2010 16:13 22,5 C 12,1 C 15,8 C 70 % 0 % 1002 hPa 0,0 l/m 1,0 km/h (0 Bft)
07.05.2010 16:16 22,5 C 12,4 C 17,1 C 68 % 0 % 1002 hPa 0,0 l/m 4,2 km/h (1 Bft)
07.05.2010 16:19 22,2 C 12,4 C 17,1 C 67 % 0 % 1002 hPa 0,0 l/m 0,0 km/h (0 Bft)
07.05.2010 16:22 22,4 C 12,4 C 17,6 C 67 % 0 % 1002 hPa 0,0 l/m 2,3 km/h (1 Bft)
07.05.2010 16:25 22,4 C 12,4 C 18,3 C 67 % 0 % 1002 hPa 0,0 l/m 6,4 km/h (2 Bft)
07.05.2010 16:28 22,5 C 12,2 C 16,3 C 67 % 0 % 1002 hPa 0,0 l/m 4,2 km/h (1 Bft)
07.05.2010 16:31 22,6 C 12,2 C 16,3 C 64 % 0 % 1002 hPa 0,0 l/m 0,0 km/h (0 Bft)
07.05.2010 16:34 22,8 C 12,2 C 16,4 C 64 % 0 % 1002 hPa 0,0 l/m 2,7 km/h (1 Bft)
07.05.2010 16:37 22,8 C 12,0 C 16,4 C 66 % 0 % 1002 hPa 0,0 l/m 1,3 km/h (1 Bft)
07.05.2010 16:40 22,9 C 11,9 C 16,1 C 66 % 0 % 1002 hPa 0,0 l/m 4,9 km/h (1 Bft)
07.05.2010 16:43 22,9 C 11,9 C 16,4 C 67 % 0 % 1002 hPa 0,0 l/m 0,6 km/h (0 Bft)
07.05.2010 16:46 22,9 C 12,0 C 15,9 C 67 % 0 % 1002 hPa 0,0 l/m 0,1 km/h (0 Bft)
07.05.2010 16:49 22,9 C 12,1 C 16,4 C 67 % 0 % 1002 hPa 0,0 l/m 2,2 km/h (1 Bft)
07.05.2010 16:52 22,8 C 12,2 C 15,7 C 68 % 0 % 1002 hPa 0,0 l/m 5,9 km/h (2 Bft)
07.05.2010 16:55 22,8 C 12,3 C 15,2 C 67 % 0 % 1002 hPa 0,0 l/m 2,7 km/h (1 Bft)
07.05.2010 16:58 22,9 C 12,4 C 15,2 C 67 % 0 % 1002 hPa 0,0 l/m 0,1 km/h (0 Bft)
07.05.2010 17:01 22,9 C 12,6 C 15,1 C 67 % 0 % 1002 hPa 0,0 l/m 1,9 km/h (1 Bft)
07.05.2010 17:04 22,9 C 12,7 C 16,4 C 66 % 0 % 1002 hPa 0,0 l/m 0,1 km/h (0 Bft)
07.05.2010 17:07 22,9 C 12,7 C 16,9 C 66 % 0 % 1002 hPa 0,0 l/m 0,1 km/h (0 Bft)
07.05.2010 17:10 22,9 C 12,7 C 17,4 C 66 % 0 % 1002 hPa 0,0 l/m 7,4 km/h (2 Bft)
07.05.2010 17:13 22,9 C 12,6 C 16,7 C 65 % 0 % 1002 hPa 0,0 l/m 3,3 km/h (1 Bft)
07.05.2010 17:16 22,9 C 12,5 C 16,4 C 66 % 0 % 1002 hPa 0,0 l/m 0,5 km/h (0 Bft)
07.05.2010 17:19 22,9 C 12,4 C 15,7 C 66 % 0 % 1002 hPa 0,0 l/m 0,4 km/h (0 Bft)
07.05.2010 17:22 22,9 C 12,4 C 15,6 C 66 % 0 % 1002 hPa 0,0 l/m 2,8 km/h (1 Bft)
07.05.2010 17:25 22,9 C 12,4 C 14,6 C 66 % 0 % 1002 hPa 0,0 l/m 0,3 km/h (0 Bft)
07.05.2010 17:28 22,9 C 12,5 C 15,2 C 64 % 0 % 1002 hPa 0,0 l/m 0,1 km/h (0 Bft)
07.05.2010 17:31 22,9 C 12,4 C 15,2 C 65 % 0 % 1002 hPa 0,0 l/m 3,8 km/h (1 Bft)
07.05.2010 17:34 22,9 C 12,4 C 14,6 C 65 % 0 % 1002 hPa 0,0 l/m 3,9 km/h (1 Bft)
07.05.2010 17:37 22,8 C 12,2 C 14,6 C 65 % 0 % 1002 hPa 0,0 l/m 0,3 km/h (0 Bft)
07.05.2010 17:40 22,8 C 12,1 C 14,4 C 67 % 0 % 1002 hPa 0,0 l/m 0,0 km/h (0 Bft)
07.05.2010 17:43 22,8 C 12,0 C 14,9 C 67 % 0 % 1002 hPa 0,0 l/m 0,1 km/h (0 Bft)
07.05.2010 17:46 22,8 C 12,0 C 14,3 C 67 % 0 % 1002 hPa 0,0 l/m 0,0 km/h (0 Bft)
07.05.2010 17:49 22,8 C 12,0 C 14,6 C 66 % 0 % 1002 hPa 0,0 l/m 0,0 km/h (0 Bft)
07.05.2010 17:52 22,8 C 12,0 C 14,6 C 66 % 0 % 1002 hPa 0,0 l/m 0,2 km/h (0 Bft)
07.05.2010 17:55 22,8 C 11,9 C 14,3 C 66 % 0 % 1002 hPa 0,0 l/m 0,0 km/h (0 Bft)
07.05.2010 17:58 22,8 C 11,9 C 13,6 C 66 % 0 % 1002 hPa 0,0 l/m 0,0 km/h (0 Bft)
07.05.2010 18:01 22,8 C 11,8 C 14,2 C 67 % 0 % 1002 hPa 0,0 l/m 0,4 km/h (0 Bft)
07.05.2010 18:04 22,8 C 11,8 C 14,1 C 67 % 0 % 1002 hPa 0,0 l/m 0,0 km/h (0 Bft)
07.05.2010 18:07 22,8 C 11,8 C 14,3 C 67 % 0 % 1002 hPa 0,0 l/m 0,1 km/h (0 Bft)
07.05.2010 18:10 22,8 C 11,9 C 13,8 C 67 % 0 % 1002 hPa 0,0 l/m 0,0 km/h (0 Bft)
07.05.2010 18:13 22,8 C 11,9 C 13,7 C 68 % 0 % 1002 hPa 0,0 l/m 0,0 km/h (0 Bft)
07.05.2010 18:16 22,8 C 12,0 C 13,3 C 68 % 0 % 1002 hPa 0,0 l/m 0,0 km/h (0 Bft)
07.05.2010 18:19 22,8 C 12,0 C 13,6 C 68 % 0 % 1002 hPa 0,0 l/m 0,1 km/h (0 Bft)
07.05.2010 18:22 22,8 C 12,0 C 13,4 C 68 % 0 % 1002 hPa 0,0 l/m 0,0 km/h (0 Bft)
07.05.2010 18:25 22,8 C 11,9 C 13,1 C 69 % 0 % 1002 hPa 0,0 l/m 0,0 km/h (0 Bft)
07.05.2010 18:28 22,8 C 11,9 C 12,5 C 69 % 0 % 1002 hPa 0,0 l/m 0,0 km/h (0 Bft)
07.05.2010 18:31 22,8 C 11,9 C 12,4 C 69 % 0 % 1002 hPa 0,0 l/m 0,0 km/h (0 Bft)
07.05.2010 18:34 22,8 C 11,8 C 12,3 C 69 % 0 % 1002 hPa 0,0 l/m 0,1 km/h (0 Bft)
07.05.2010 18:37 22,8 C 11,8 C 12,6 C 69 % 0 % 1002 hPa 0,0 l/m 0,0 km/h (0 Bft)
07.05.2010 18:40 22,8 C 11,8 C 12,4 C 69 % 0 % 1002 hPa 0,0 l/m 0,0 km/h (0 Bft)
07.05.2010 18:43 22,8 C 11,8 C 12,5 C 69 % 0 % 1002 hPa 0,0 l/m 0,0 km/h (0 Bft)
07.05.2010 18:46 22,8 C 11,8 C 12,5 C 69 % 0 % 1002 hPa 0,0 l/m 0,0 km/h (0 Bft)
07.05.2010 18:49 22,8 C 11,8 C 12,6 C 69 % 0 % 1002 hPa 0,0 l/m 0,0 km/h (0 Bft)
07.05.2010 18:52 22,8 C 11,8 C 12,3 C 69 % 0 % 1002 hPa 0,0 l/m 0,0 km/h (0 Bft)
07.05.2010 18:55 22,8 C 11,8 C 12,1 C 70 % 0 % 1002 hPa 0,0 l/m 0,0 km/h (0 Bft)
07.05.2010 18:58 22,8 C 11,8 C 12,1 C 70 % 0 % 1002 hPa 0,0 l/m 0,0 km/h (0 Bft)
07.05.2010 19:01 22,8 C 11,6 C 12,0 C 69 % 0 % 1002 hPa 0,0 l/m 0,0 km/h (0 Bft)
07.05.2010 19:04 22,8 C 11,7 C 12,0 C 70 % 0 % 1002 hPa 0,0 l/m 0,0 km/h (0 Bft)
07.05.2010 19:07 22,8 C 11,7 C 12,0 C 70 % 0 % 1002 hPa 0,0 l/m 0,0 km/h (0 Bft)
07.05.2010 19:10 22,8 C 11,6 C 11,9 C 70 % 0 % 1002 hPa 0,0 l/m 0,0 km/h (0 Bft)
07.05.2010 19:13 22,8 C 11,6 C 11,9 C 70 % 0 % 1002 hPa 0,0 l/m 0,0 km/h (0 Bft)
07.05.2010 19:16 22,8 C 11,5 C 11,7 C 69 % 0 % 1002 hPa 0,0 l/m 0,0 km/h (0 Bft)
07.05.2010 19:19 22,8 C 11,5 C 11,6 C 70 % 0 % 1002 hPa 0,0 l/m 0,0 km/h (0 Bft)
07.05.2010 19:22 22,8 C 11,5 C 11,6 C 70 % 0 % 1002 hPa 0,0 l/m 0,0 km/h (0 Bft)
07.05.2010 19:25 22,8 C 11,4 C 11,4 C 71 % 0 % 1002 hPa 0,0 l/m 0,0 km/h (0 Bft)
07.05.2010 19:28 22,8 C 11,4 C 11,3 C 71 % 0 % 1002 hPa 0,0 l/m 0,0 km/h (0 Bft)
07.05.2010 19:31 22,8 C 11,3 C 11,4 C 71 % 0 % 1002 hPa 0,0 l/m 0,0 km/h (0 Bft)
07.05.2010 19:34 22,7 C 11,2 C 11,4 C 72 % 0 % 1002 hPa 0,0 l/m 0,0 km/h (0 Bft)
07.05.2010 19:37 22,8 C 11,1 C 11,4 C 72 % 0 % 1002 hPa 0,0 l/m 0,0 km/h (0 Bft)
07.05.2010 19:40 22,7 C 11,0 C 11,3 C 73 % 0 % 1002 hPa 0,0 l/m 0,0 km/h (0 Bft)
07.05.2010 19:43 22,7 C 11,0 C 11,1 C 73 % 0 % 1003 hPa 0,0 l/m 0,0 km/h (0 Bft)
07.05.2010 19:46 22,8 C 11,0 C 11,1 C 73 % 0 % 1003 hPa 0,0 l/m 0,3 km/h (0 Bft)
07.05.2010 19:49 22,7 C 10,9 C 10,9 C 73 % 0 % 1003 hPa 0,0 l/m 0,0 km/h (0 Bft)
07.05.2010 19:52 22,7 C 10,9 C 11,0 C 73 % 0 % 1003 hPa 0,0 l/m 0,0 km/h (0 Bft)
07.05.2010 19:55 22,7 C 10,9 C 11,0 C 73 % 0 % 1003 hPa 0,0 l/m 0,3 km/h (0 Bft)
07.05.2010 19:58 22,7 C 10,8 C 10,8 C 73 % 0 % 1003 hPa 0,0 l/m 0,3 km/h (0 Bft)
07.05.2010 20:01 22,7 C 10,8 C 10,8 C 73 % 0 % 1003 hPa 0,0 l/m 0,0 km/h (0 Bft)
07.05.2010 20:04 22,7 C 10,8 C 10,8 C 73 % 0 % 1003 hPa 0,0 l/m 0,1 km/h (0 Bft)
07.05.2010 20:07 22,7 C 10,6 C 10,7 C 73 % 0 % 1003 hPa 0,0 l/m 0,0 km/h (0 Bft)
07.05.2010 20:10 22,8 C 10,6 C 10,7 C 73 % 0 % 1003 hPa 0,0 l/m 0,0 km/h (0 Bft)
07.05.2010 20:13 22,8 C 10,6 C 10,7 C 74 % 0 % 1003 hPa 0,0 l/m 0,0 km/h (0 Bft)
07.05.2010 20:16 22,8 C 10,6 C 10,6 C 74 % 0 % 1003 hPa 0,0 l/m 0,0 km/h (0 Bft)
07.05.2010 20:19 22,8 C 10,6 C 10,5 C 74 % 0 % 1003 hPa 0,0 l/m 0,0 km/h (0 Bft)
07.05.2010 20:22 22,8 C 10,4 C 10,3 C 74 % 0 % 1003 hPa 0,0 l/m 0,0 km/h (0 Bft)
07.05.2010 20:25 22,8 C 10,4 C 10,3 C 74 % 0 % 1003 hPa 0,0 l/m 0,1 km/h (0 Bft)
07.05.2010 20:28 22,9 C 10,4 C 10,4 C 75 % 0 % 1003 hPa 0,0 l/m 0,2 km/h (0 Bft)
07.05.2010 20:31 22,9 C 10,4 C 10,4 C 75 % 0 % 1003 hPa 0,0 l/m 0,0 km/h (0 Bft)
07.05.2010 20:34 22,9 C 10,4 C 10,4 C 75 % 0 % 1003 hPa 0,0 l/m 0,0 km/h (0 Bft)
07.05.2010 20:37 22,9 C 10,4 C 10,5 C 75 % 0 % 1003 hPa 0,0 l/m 0,0 km/h (0 Bft)
07.05.2010 20:40 22,9 C 10,2 C 10,4 C 75 % 0 % 1003 hPa 0,0 l/m 0,1 km/h (0 Bft)
07.05.2010 20:43 22,8 C 10,2 C 10,4 C 75 % 0 % 1003 hPa 0,0 l/m 0,0 km/h (0 Bft)
07.05.2010 20:46 22,8 C 10,2 C 10,4 C 75 % 0 % 1003 hPa 0,0 l/m 0,0 km/h (0 Bft)
07.05.2010 20:49 22,8 C 10,1 C 10,3 C 75 % 0 % 1003 hPa 0,0 l/m 0,0 km/h (0 Bft)
07.05.2010 20:52 22,8 C 10,1 C 10,3 C 75 % 0 % 1003 hPa 0,0 l/m 0,0 km/h (0 Bft)
07.05.2010 20:55 22,8 C 10,0 C 10,4 C 75 % 0 % 1003 hPa 0,0 l/m 0,0 km/h (0 Bft)
07.05.2010 20:58 22,8 C 10,1 C 10,3 C 76 % 0 % 1003 hPa 0,0 l/m 0,0 km/h (0 Bft)
07.05.2010 21:01 22,8 C 10,0 C 10,3 C 76 % 0 % 1003 hPa 0,0 l/m 0,0 km/h (0 Bft)
07.05.2010 21:04 22,8 C 10,0 C 10,4 C 76 % 0 % 1003 hPa 0,0 l/m 0,0 km/h (0 Bft)
07.05.2010 21:07 22,8 C 10,0 C 10,3 C 76 % 0 % 1003 hPa 0,0 l/m 0,1 km/h (0 Bft)
07.05.2010 21:10 22,8 C 10,0 C 10,3 C 76 % 0 % 1003 hPa 0,0 l/m 0,0 km/h (0 Bft)
07.05.2010 21:13 22,8 C 10,0 C 10,3 C 76 % 0 % 1003 hPa 0,0 l/m 0,0 km/h (0 Bft)
07.05.2010 21:16 22,8 C 10,0 C 10,3 C 76 % 0 % 1003 hPa 0,0 l/m 0,0 km/h (0 Bft)
07.05.2010 21:19 22,8 C 10,0 C 10,2 C 76 % 0 % 1003 hPa 0,0 l/m 0,0 km/h (0 Bft)
07.05.2010 21:22 22,8 C 10,0 C 10,3 C 76 % 0 % 1003 hPa 0,0 l/m 0,0 km/h (0 Bft)
07.05.2010 21:25 22,8 C 10,0 C 10,3 C 76 % 0 % 1003 hPa 0,0 l/m 0,0 km/h (0 Bft)
07.05.2010 21:28 22,8 C 10,0 C 10,2 C 76 % 0 % 1003 hPa 0,0 l/m 0,0 km/h (0 Bft)
07.05.2010 21:31 22,8 C 9,9 C 10,3 C 76 % 0 % 1003 hPa 0,0 l/m 0,0 km/h (0 Bft)
07.05.2010 21:34 22,8 C 9,9 C 10,2 C 76 % 0 % 1003 hPa 0,0 l/m 0,0 km/h (0 Bft)
07.05.2010 21:37 22,8 C 9,9 C 10,2 C 76 % 0 % 1003 hPa 0,0 l/m 0,0 km/h (0 Bft)
07.05.2010 21:40 22,8 C 9,8 C 10,1 C 76 % 0 % 1003 hPa 0,0 l/m 0,0 km/h (0 Bft)
07.05.2010 21:43 22,8 C 9,8 C 10,1 C 76 % 0 % 1003 hPa 0,0 l/m 0,0 km/h (0 Bft)
07.05.2010 21:46 22,7 C 9,8 C 10,0 C 76 % 0 % 1003 hPa 0,0 l/m 0,0 km/h (0 Bft)
07.05.2010 21:49 22,8 C 9,8 C 10,1 C 76 % 0 % 1003 hPa 0,0 l/m 0,0 km/h (0 Bft)
07.05.2010 21:52 22,8 C 9,8 C 10,1 C 76 % 0 % 1003 hPa 0,0 l/m 0,0 km/h (0 Bft)
07.05.2010 21:55 22,8 C 9,7 C 10,1 C 76 % 0 % 1003 hPa 0,0 l/m 0,0 km/h (0 Bft)
07.05.2010 21:58 22,8 C 9,7 C 9,7 C 76 % 0 % 1003 hPa 0,0 l/m 0,0 km/h (0 Bft)
07.05.2010 22:01 22,7 C 9,7 C 9,9 C 77 % 0 % 1003 hPa 0,0 l/m 0,0 km/h (0 Bft)
07.05.2010 22:04 22,7 C 9,7 C 10,0 C 77 % 0 % 1003 hPa 0,0 l/m 0,0 km/h (0 Bft)
07.05.2010 22:07 22,7 C 9,7 C 9,9 C 77 % 0 % 1003 hPa 0,0 l/m 0,0 km/h (0 Bft)
07.05.2010 22:10 22,7 C 9,6 C 9,9 C 77 % 0 % 1003 hPa 0,0 l/m 0,0 km/h (0 Bft)
07.05.2010 22:13 22,7 C 9,6 C 9,9 C 78 % 0 % 1003 hPa 0,0 l/m 0,0 km/h (0 Bft)
07.05.2010 22:16 22,7 C 9,6 C 10,0 C 78 % 0 % 1003 hPa 0,0 l/m 0,0 km/h (0 Bft)
07.05.2010 22:19 22,7 C 9,6 C 9,9 C 78 % 0 % 1003 hPa 0,0 l/m 0,0 km/h (0 Bft)
07.05.2010 22:22 22,7 C 9,4 C 10,1 C 78 % 0 % 1003 hPa 0,0 l/m 0,0 km/h (0 Bft)
07.05.2010 22:25 22,7 C 9,4 C 10,0 C 78 % 0 % 1004 hPa 0,0 l/m 0,0 km/h (0 Bft)
07.05.2010 22:28 22,7 C 9,3 C 10,0 C 79 % 0 % 1004 hPa 0,0 l/m 0,0 km/h (0 Bft)
07.05.2010 22:31 22,7 C 9,3 C 10,0 C 79 % 0 % 1004 hPa 0,0 l/m 0,0 km/h (0 Bft)
07.05.2010 22:34 22,7 C 9,3 C 10,0 C 79 % 0 % 1003 hPa 0,0 l/m 0,0 km/h (0 Bft)
07.05.2010 22:37 22,7 C 9,3 C 9,9 C 79 % 0 % 1003 hPa 0,0 l/m 0,0 km/h (0 Bft)
07.05.2010 22:40 22,7 C 9,3 C 10,0 C 79 % 0 % 1003 hPa 0,0 l/m 0,0 km/h (0 Bft)
07.05.2010 22:43 22,7 C 9,3 C 10,0 C 79 % 0 % 1004 hPa 0,0 l/m 0,0 km/h (0 Bft)
07.05.2010 22:46 22,7 C 9,3 C 10,0 C 79 % 0 % 1004 hPa 0,0 l/m 0,0 km/h (0 Bft)
07.05.2010 22:49 22,7 C 9,3 C 10,0 C 79 % 0 % 1004 hPa 0,0 l/m 0,0 km/h (0 Bft)
07.05.2010 22:52 22,7 C 9,3 C 10,0 C 79 % 0 % 1004 hPa 0,0 l/m 0,0 km/h (0 Bft)
07.05.2010 22:55 22,7 C 9,3 C 10,0 C 79 % 0 % 1004 hPa 0,0 l/m 0,0 km/h (0 Bft)
07.05.2010 22:58 22,7 C 9,3 C 10,0 C 79 % 0 % 1004 hPa 0,0 l/m 0,0 km/h (0 Bft)
07.05.2010 23:01 22,7 C 9,3 C 10,0 C 79 % 0 % 1004 hPa 0,0 l/m 0,0 km/h (0 Bft)
07.05.2010 23:04 22,7 C 9,3 C 10,0 C 80 % 0 % 1004 hPa 0,0 l/m 0,0 km/h (0 Bft)
07.05.2010 23:07 22,7 C 9,3 C 9,9 C 80 % 0 % 1004 hPa 0,0 l/m 0,0 km/h (0 Bft)
07.05.2010 23:10 22,7 C 9,4 C 9,8 C 80 % 0 % 1004 hPa 0,0 l/m 0,0 km/h (0 Bft)
07.05.2010 23:13 22,7 C 9,3 C 9,9 C 80 % 0 % 1004 hPa 0,0 l/m 0,0 km/h (0 Bft)
07.05.2010 23:16 22,7 C 9,4 C 10,0 C 81 % 0 % 1004 hPa 0,0 l/m 0,0 km/h (0 Bft)
07.05.2010 23:19 22,7 C 9,4 C 10,0 C 81 % 0 % 1004 hPa 0,0 l/m 0,0 km/h (0 Bft)
07.05.2010 23:22 22,7 C 9,4 C 10,0 C 81 % 0 % 1004 hPa 0,0 l/m 0,0 km/h (0 Bft)
07.05.2010 23:25 22,7 C 9,3 C 10,0 C 81 % 0 % 1004 hPa 0,0 l/m 0,0 km/h (0 Bft)
07.05.2010 23:28 22,7 C 9,3 C 9,8 C 81 % 0 % 1004 hPa 0,0 l/m 0,0 km/h (0 Bft)
07.05.2010 23:31 22,7 C 9,3 C 9,7 C 81 % 0 % 1004 hPa 0,0 l/m 0,0 km/h (0 Bft)
07.05.2010 23:34 22,7 C 9,3 C 9,7 C 81 % 0 % 1004 hPa 0,0 l/m 0,0 km/h (0 Bft)
07.05.2010 23:37 22,7 C 9,3 C 9,7 C 81 % 0 % 1004 hPa 0,0 l/m 0,0 km/h (0 Bft)
07.05.2010 23:40 22,7 C 9,3 C 9,7 C 81 % 0 % 1004 hPa 0,0 l/m 0,0 km/h (0 Bft)
07.05.2010 23:43 22,7 C 9,2 C 10,0 C 81 % 0 % 1004 hPa 0,0 l/m 0,0 km/h (0 Bft)
07.05.2010 23:46 22,7 C 9,2 C 10,0 C 81 % 0 % 1004 hPa 0,0 l/m 0,0 km/h (0 Bft)
07.05.2010 23:49 22,7 C 9,2 C 9,8 C 81 % 0 % 1004 hPa 0,0 l/m 0,0 km/h (0 Bft)
07.05.2010 23:52 22,7 C 9,2 C 9,8 C 82 % 0 % 1004 hPa 0,0 l/m 0,0 km/h (0 Bft)
07.05.2010 23:55 22,7 C 9,2 C 9,9 C 82 % 0 % 1004 hPa 0,0 l/m 0,0 km/h (0 Bft)
07.05.2010 23:58 22,6 C 9,2 C 9,9 C 82 % 0 % 1003 hPa 0,0 l/m 0,0 km/h (0 Bft)
_ Min-Zeit 14:34 05:58 06:46 16:31 - 00:00 - 00:15
Minimum _ 20,4 C 6,9 C 7,8 C 64 % - 998 hPa - 0,0 km/h (0 Bft)
_ Max-Zeit 14:01 13:37 16:25 07:04 00:00 22:25 00:00 02:18
Maximum _ 23,4 C 12,9 C 18,3 C 91 % 0 % 1004 hPa 0,0 l/m 18,0 km/h
NW (3 Bft)
Durchschnitt _ 22,8 C 9,5 C 11,7 C 78 % #0 min. 1001 hPa #0,0 l/m 4,7 km/h (1 Bft)